Location: Burla
(50.9568°N, 10.4983°E)
Time: 11:51:29
(UTC+00:00)

Cosmos 2084 Rocket - Pass Details

Date: 18 January 2026
Orbit: 541 x 571 km, 62.8° (Epoch: 16 February)

Event Time Altitude Azimuth Distance (km) Brightness Sun altitude
Exits shadow 05:50:40 19° 297° (WNW) 1,399 4.7 -12.4°
Maximum altitude 05:53:23 44° 233° (SW) 801 3.9 -12.0°
Drops below altitude 10° 05:57:23 10° 162° (SSE) 1,870 6.6 -11.4°
Sets 05:59:41 0° 156° (SSE) 2,765 7.6 -11.1°
